TimeCDT,TemperatureF,Dew PointF,Humidity,Sea Level PressureIn,VisibilityMPH,Wind Direction,Wind SpeedMPH,Gust SpeedMPH,PrecipitationIn,Events,Conditions,WindDirDegrees,DateUTC
12:58 AM,39.2,30.6,71,30.30,10.0,South,2.3,-,N/A,,Clear,170,2013-03-15 05:58:00
1:58 AM,38.1,31.1,76,30.29,10.0,West,3.5,-,N/A,,Clear,280,2013-03-15 06:58:00
2:58 AM,37.4,30.9,77,30.28,10.0,Calm,Calm,-,N/A,,Clear,0,2013-03-15 07:58:00
3:58 AM,37.8,32.9,83,30.25,10.0,South,3.5,-,N/A,,Clear,180,2013-03-15 08:58:00
4:58 AM,38.1,30.2,73,30.27,10.0,WNW,2.3,-,N/A,,Clear,290,2013-03-15 09:58:00
5:58 AM,36.3,32.7,87,30.27,10.0,ESE,2.3,-,N/A,,Clear,120,2013-03-15 10:58:00
6:58 AM,34.5,30.9,87,30.28,10.0,Calm,Calm,-,N/A,,Clear,0,2013-03-15 11:58:00
7:58 AM,39.9,35.8,85,30.29,10.0,South,2.3,-,N/A,,Clear,170,2013-03-15 12:58:00
8:58 AM,48.9,34.9,58,30.30,10.0,WSW,2.3,-,N/A,,Clear,240,2013-03-15 13:58:00
9:58 AM,58.3,35.1,42,30.30,10.0,SW,6.9,-,N/A,,Clear,230,2013-03-15 14:58:00
10:58 AM,63.9,34.7,34,30.28,10.0,West,8.1,-,N/A,,Clear,260,2013-03-15 15:58:00
11:58 AM,67.8,37.0,32,30.26,10.0,SW,9.2,-,N/A,,Clear,220,2013-03-15 16:58:00
12:58 PM,70.0,38.7,32,30.23,10.0,SSW,10.4,-,N/A,,Clear,210,2013-03-15 17:58:00
1:58 PM,72.5,39.0,30,30.18,10.0,SSW,12.7,-,N/A,,Clear,200,2013-03-15 18:58:00
2:58 PM,73.8,40.1,30,30.15,10.0,SW,8.1,17.3,N/A,,Clear,220,2013-03-15 19:58:00
3:58 PM,74.1,39.7,29,30.13,10.0,WSW,12.7,-,N/A,,Clear,240,2013-03-15 20:58:00
4:58 PM,73.8,40.5,30,30.12,10.0,SW,13.8,17.3,N/A,,Clear,220,2013-03-15 21:58:00
5:20 PM,73.4,41.0,31,30.11,10.0,South,15.0,-,N/A,,Clear,190,2013-03-15 22:20:00
5:58 PM,69.6,41.5,36,30.13,10.0,SSW,15.0,-,N/A,,Clear,200,2013-03-15 22:58:00
6:58 PM,63.9,41.4,44,30.14,10.0,SSW,11.5,-,N/A,,Clear,200,2013-03-15 23:58:00
7:58 PM,60.6,43.9,54,30.15,10.0,South,10.4,-,N/A,,Clear,190,2013-03-16 00:58:00
8:58 PM,58.3,44.6,60,30.16,10.0,SSW,10.4,-,N/A,,Clear,210,2013-03-16 01:58:00
9:58 PM,56.3,45.3,67,30.16,10.0,SSW,10.4,-,N/A,,Clear,210,2013-03-16 02:58:00
10:58 PM,54.1,45.7,73,30.15,10.0,SSW,9.2,-,N/A,,Clear,200,2013-03-16 03:58:00
11:58 PM,52.2,46.0,80,30.14,10.0,SSW,9.2,-,N/A,,Clear,200,2013-03-16 04:58:00